TimePST,TemperatureF,Dew PointF,Humidity,Sea Level PressureIn,VisibilityMPH,Wind Direction,Wind SpeedMPH,Gust SpeedMPH,PrecipitationIn,Events,Conditions,WindDirDegrees,DateUTC
12:15 AM,42.8,33.8,70,30.15,10.0,East,6.9,-,N/A,,Clear,90,2012-02-05 08:15:00
12:35 AM,42.8,33.8,70,30.15,10.0,East,8.1,-,N/A,,Clear,80,2012-02-05 08:35:00
12:55 AM,42.8,33.8,70,30.16,10.0,East,8.1,-,N/A,,Clear,90,2012-02-05 08:55:00
1:15 AM,42.8,33.8,70,30.16,10.0,East,9.2,-,N/A,,Clear,90,2012-02-05 09:15:00
1:35 AM,42.8,33.8,70,30.16,10.0,East,10.4,-,N/A,,Clear,90,2012-02-05 09:35:00
1:55 AM,42.8,33.8,70,30.16,10.0,East,8.1,-,N/A,,Clear,80,2012-02-05 09:55:00
2:15 AM,42.8,33.8,70,30.17,10.0,East,10.4,-,N/A,,Clear,90,2012-02-05 10:15:00
2:35 AM,42.8,33.8,70,30.17,10.0,East,9.2,-,N/A,,Clear,80,2012-02-05 10:35:00
2:55 AM,42.8,33.8,70,30.17,10.0,East,9.2,-,N/A,,Clear,90,2012-02-05 10:55:00
3:15 AM,42.8,32.0,66,30.17,10.0,East,9.2,-,N/A,,Clear,80,2012-02-05 11:15:00
3:35 AM,42.8,32.0,66,30.18,10.0,East,9.2,-,N/A,,Clear,90,2012-02-05 11:35:00
3:55 AM,42.8,32.0,66,30.18,10.0,East,10.4,-,N/A,,Clear,90,2012-02-05 11:55:00
4:15 AM,42.8,32.0,66,30.19,10.0,East,8.1,-,N/A,,Clear,80,2012-02-05 12:15:00
4:35 AM,42.8,32.0,66,30.18,10.0,East,10.4,-,N/A,,Clear,90,2012-02-05 12:35:00
4:55 AM,42.8,32.0,66,30.18,10.0,East,9.2,-,N/A,,Clear,90,2012-02-05 12:55:00
5:15 AM,42.8,32.0,66,30.19,10.0,East,10.4,-,N/A,,Clear,90,2012-02-05 13:15:00
5:35 AM,42.8,32.0,66,30.19,10.0,East,9.2,-,N/A,,Clear,80,2012-02-05 13:35:00
5:55 AM,42.8,32.0,66,30.19,10.0,East,10.4,-,N/A,,Clear,80,2012-02-05 13:55:00
6:15 AM,42.8,32.0,66,30.19,10.0,East,8.1,-,N/A,,Clear,90,2012-02-05 14:15:00
6:35 AM,42.8,32.0,66,30.19,10.0,East,8.1,-,N/A,,Clear,80,2012-02-05 14:35:00
6:55 AM,42.8,32.0,66,30.19,10.0,East,8.1,-,N/A,,Clear,80,2012-02-05 14:55:00
7:15 AM,42.8,32.0,66,30.19,10.0,East,9.2,-,N/A,,Clear,80,2012-02-05 15:15:00
7:35 AM,42.8,32.0,66,30.19,10.0,East,9.2,-,N/A,,Clear,80,2012-02-05 15:35:00
7:55 AM,41.0,32.0,70,30.19,10.0,East,9.2,-,N/A,,Clear,100,2012-02-05 15:55:00
8:15 AM,42.8,32.0,66,30.19,10.0,East,11.5,-,N/A,,Clear,90,2012-02-05 16:15:00
8:35 AM,42.8,32.0,66,30.19,10.0,East,12.7,-,N/A,,Clear,80,2012-02-05 16:35:00
8:55 AM,44.6,32.0,61,30.19,10.0,East,11.5,-,N/A,,Clear,80,2012-02-05 16:55:00
9:15 AM,44.6,32.0,61,30.19,10.0,East,11.5,-,N/A,,Clear,90,2012-02-05 17:15:00
9:35 AM,48.2,32.0,54,30.19,10.0,East,12.7,-,N/A,,Clear,80,2012-02-05 17:35:00
9:55 AM,48.2,33.8,58,30.19,10.0,East,11.5,-,N/A,,Clear,80,2012-02-05 17:55:00
10:15 AM,50.0,33.8,54,30.19,10.0,East,10.4,-,N/A,,Clear,80,2012-02-05 18:15:00
10:35 AM,50.0,33.8,54,30.19,10.0,East,9.2,-,N/A,,Clear,80,2012-02-05 18:35:00
10:55 AM,50.0,33.8,54,30.19,10.0,ENE,9.2,-,N/A,,Clear,70,2012-02-05 18:55:00
11:15 AM,51.8,33.8,50,30.19,10.0,East,8.1,-,N/A,,Clear,80,2012-02-05 19:15:00
11:35 AM,51.8,33.8,50,30.19,10.0,East,8.1,-,N/A,,Clear,80,2012-02-05 19:35:00
11:55 AM,51.8,33.8,50,30.18,10.0,ENE,8.1,-,N/A,,Clear,70,2012-02-05 19:55:00
12:15 PM,51.8,35.6,54,30.17,10.0,ENE,4.6,-,N/A,,Clear,70,2012-02-05 20:15:00
12:35 PM,53.6,35.6,51,30.17,10.0,East,5.8,-,N/A,,Clear,80,2012-02-05 20:35:00
12:55 PM,55.4,35.6,47,30.16,10.0,East,6.9,-,N/A,,Clear,90,2012-02-05 20:55:00
1:15 PM,55.4,35.6,47,30.16,10.0,East,6.9,-,N/A,,Clear,80,2012-02-05 21:15:00
1:35 PM,55.4,35.6,47,30.15,10.0,East,8.1,-,N/A,,Clear,90,2012-02-05 21:35:00
1:55 PM,55.4,35.6,47,30.14,10.0,East,5.8,-,N/A,,Clear,90,2012-02-05 21:55:00
2:15 PM,55.4,35.6,47,30.14,10.0,East,4.6,-,N/A,,Clear,80,2012-02-05 22:15:00
2:35 PM,57.2,35.6,44,30.13,10.0,ENE,4.6,-,N/A,,Clear,70,2012-02-05 22:35:00
2:55 PM,59.0,35.6,42,30.12,7.0,ENE,6.9,-,N/A,,Clear,60,2012-02-05 22:55:00
3:15 PM,59.0,37.4,45,30.12,10.0,East,5.8,-,N/A,,Clear,90,2012-02-05 23:15:00
3:35 PM,59.0,35.6,42,30.11,10.0,ENE,6.9,-,N/A,,Clear,70,2012-02-05 23:35:00
3:55 PM,57.2,37.4,48,30.10,10.0,East,6.9,-,N/A,,Clear,80,2012-02-05 23:55:00
4:15 PM,55.4,37.4,51,30.10,10.0,NNE,4.6,-,N/A,,Clear,30,2012-02-06 00:15:00
4:35 PM,55.4,37.4,51,30.09,10.0,ENE,6.9,-,N/A,,Clear,70,2012-02-06 00:35:00
4:55 PM,53.6,35.6,51,30.08,10.0,ENE,11.5,-,N/A,,Clear,70,2012-02-06 00:55:00
5:15 PM,53.6,33.8,47,30.08,10.0,East,13.8,19.6,N/A,,Clear,80,2012-02-06 01:15:00
5:35 PM,53.6,32.0,44,30.08,10.0,East,15.0,-,N/A,,Clear,80,2012-02-06 01:35:00
5:55 PM,51.8,32.0,47,30.08,10.0,East,13.8,-,N/A,,Clear,80,2012-02-06 01:55:00
6:15 PM,51.8,32.0,47,30.08,10.0,East,16.1,21.9,N/A,,Clear,80,2012-02-06 02:15:00
6:35 PM,51.8,33.8,50,30.07,10.0,East,16.1,20.7,N/A,,Clear,80,2012-02-06 02:35:00
6:55 PM,51.8,33.8,50,30.07,10.0,East,15.0,19.6,N/A,,Clear,80,2012-02-06 02:55:00
7:15 PM,50.0,33.8,54,30.07,10.0,East,13.8,-,N/A,,Clear,80,2012-02-06 03:15:00
7:35 PM,50.0,33.8,54,30.06,10.0,East,15.0,-,N/A,,Clear,80,2012-02-06 03:35:00
7:55 PM,50.0,33.8,54,30.06,10.0,East,15.0,-,N/A,,Clear,80,2012-02-06 03:55:00
8:15 PM,50.0,33.8,54,30.06,10.0,East,15.0,-,N/A,,Clear,80,2012-02-06 04:15:00
8:35 PM,50.0,33.8,54,30.05,10.0,East,15.0,20.7,N/A,,Clear,90,2012-02-06 04:35:00
8:55 PM,50.0,33.8,54,30.05,10.0,East,17.3,21.9,N/A,,Clear,90,2012-02-06 04:55:00
9:15 PM,50.0,32.0,50,30.04,10.0,East,16.1,-,N/A,,Clear,80,2012-02-06 05:15:00
9:35 PM,50.0,32.0,50,30.04,10.0,East,18.4,23.0,N/A,,Clear,80,2012-02-06 05:35:00
9:55 PM,50.0,32.0,50,30.03,10.0,East,18.4,-,N/A,,Clear,80,2012-02-06 05:55:00
10:15 PM,50.0,32.0,50,30.03,10.0,East,17.3,24.2,N/A,,Clear,80,2012-02-06 06:15:00
10:35 PM,50.0,32.0,50,30.03,10.0,ENE,18.4,24.2,N/A,,Clear,70,2012-02-06 06:35:00
10:55 PM,50.0,32.0,50,30.02,10.0,ENE,21.9,27.6,N/A,,Clear,70,2012-02-06 06:55:00
11:15 PM,50.0,32.0,50,30.01,10.0,East,20.7,26.5,N/A,,Clear,80,2012-02-06 07:15:00
11:35 PM,48.2,32.0,54,30.01,10.0,East,20.7,27.6,N/A,,Clear,80,2012-02-06 07:35:00
11:55 PM,48.2,32.0,54,30.00,10.0,East,19.6,27.6,N/A,,Clear,80,2012-02-06 07:55:00